SCP
0 0 0 0 0 0 0 0 0 0 0 0 0 0 0 0 0 0 0 0 0 0 0 0 0 0 0 0 0 0 0 0 0 0 0 0 0 0 0 0 0 0 0 0
0 0 0 0 0 0 0 0 0 0 0 0 0 0 0 0 0 0 0 0 0 0 0 0 0 0 0 0 0 0 0 0 0 0 0 0 0 0 0 0 0 0 0 0
0 0 0 0 0 0 0 0 0 0 0 0 0 0 0 0 0 0 0 0 0 0 0 0 0 0 0 0 0 0 0 0 0 0 0 0 0 0 0 0 0 0 0 -0
0 0 0 0 0 0 0 0 0 0 0 0 0 0 0 0 0 0 0 0 0 0 0 0 0 0 0 0 0 0 0 0 0 0 0 -0 -0 -0 -0 -0 -0 -0 -0 -0
0 0 0 0 0 0 0 0 0 0 0 0 0 0 0 0 0 0 0 0 0 0 0 0 0 0 0 0 0 0 0 0 -0 0 -0 -0 -0 -0 -0 -0 -0 -0 -0 -0
0 0 0 0 0 0 0 0 0 0 0 0 0 0 0 0 0 0 0 0 0 0 0 0 0 0 -0 -0 -0 -0 -0 -0 -0 0 0 0 -0 0 0 0 -0 0 -0 -0
0 0 0 0 0 0 0 0 0 0 0 0 0 0 0 0 0 0 0 0 0 0 0 0 0 -0 -0 -0 -0 -0 -0 -0 -0 -0 0 -0 -0 0 0 0 0 0 -0 -0
0 0 0 0 0 0 0 0 0 0 0 0 0 0 0 0 0 0 0 0 0 0 0 0 0 -0 -0 -0 0 -0 -0 0 -0 -0 0 -0 0 -0 -0 0 0 0 0 0
0 0 0 0 0 0 0 0 0 0 0 0 0 0 0 0 0 0 0 0 0 0 -0 -0 -0 -0 -0 -0 0 0 -0 -0 -0 -0 -0 -0 -0 0 -0 0 0 0 0 0
0 0 0 0 0 0 0 0 0 0 0 0 0 0 0 0 0 0 0 -0 -0 0 -0 -0 0 -0 -0 -0 -0 -0 0 0 -0 0 -0 -0 0 0 0 0 0 -0 0 0
0 0 0 0 0 0 0 0 0 0 0 0 0 0 0 0 0 0 0 0 0 -0 -0 0 -0 -0 0 0 0 -0 0 0 0 0 0 0 0 0 0 0 0 0 -0 -0
0 0 0 0 0 0 0 0 0 0 0 0 0 0 0 0 0 0 0 0 0 0 0 -0 -0 -0 -0 -0 0 0 0 0 0 0 -0 -0 -0 0 0 -0 -0 -0 -0 0
0 0 -0 -0 -0 0 0 0 0 0 0 0 0 0 0 0 0 0 0 0 0 0 0 -0 -0 -0 -0 0 0 0 0 0 -0 -0 -0 0 0 0 0 -0 -0 0 0 0
0 0 0 0 0 0 0 0 0 0 0 0 0 0 0 -0 0 0 0 0 0 0 0 0 0 0 0 0 0 0 0 0 0 -0 0 0 0 0 0 0 -0 0 0 0
0 0 0 0 0 0 -0 0 0 0 0 0 0 0 0 0 0 0 0 0 0 0 0 0 0 0 0 0 0 0 0 0 0 0 0 0 0 0 0 0 0 0 0 0
0 0 0 0 0 0 0 -0 -0 0 0 0 0 0 -0 -0 0 0 0 0 0 0 0 0 0 0 0 0 0 0 0 0 0 0 0 0 0 0 0 0 0 0 0 0
0 0 0 0 0 0 0 0 -0 0 0 0 0 0 0 0 0 0 0 0 0 0 0 0 0 0 0 0 0 0 0 0 0 0 0 0 0 0 0 0 0 0 0 0
-0 -0 -0 0 0 0 0 0 0 0 0 0 0 0 0 0 0 0 0 0 0 0 0 0 0 0 0 0 0 0 0 0 0 0 0 0 0 0 0 0 0 0 0 0
0 -0 -0 0 0 0 0 0 0 0 0 0 0 0 0 0 0 0 0 0 0 0 0 0 0 0 0 0 0 0 0 0 0 0 0 0 0 0 0 0 0 0 0 0
0 0 0 0 0 0 0 0 0 0 0 0 0 0 0 0 0 0 0 0 0 0 0 0 0 0 0 0 0 0 0 0 0 0 0 0 0 0 0 0 0 0 0 0
0 0 0 0 0 0 0 0 0 0 0 0 0 0 -0 0 0 0 0 0 0 0 0 0 0 0 0 0 0 0 0 0 0 0 0 0 0 0 0 0 0 0 0 0
0 0 0 0 0 0 0 0 0 0 0 0 0 0 0 0 0 0 0 0 0 0 0 0 -0 0 -0 0 0 0 0 0 0 0 0 0 0 0 0 0 0 0 0 0
-0 -0 -0 -0 0 0 0 0 0 0 0 0 0 0 -0 0 0 0 0 0 0 0 0 0 0 0 -0 0 0 0 0 0 0 0 0 0 0 0 0 0 0 0 0 0
-0 -0 -0 0 0 -0 0 0 0 0 0 0 0 0 0 0 0 0 0 0 0 0 0 0 0 0 0 0 0 0 0 0 0 0 0 0 0 0 0 0 0 0 0 0
0 0 0 -0 -0 -0 -0 0 0 0 0 0 0 0 0 0 0 0 0 0 0 0 0 0 0 0 0 0 0 0 0 0 0 0 0 0 0 0 0 0 0 0 0 0
0 0 0 -0 -0 -0 -0 -0 -0 0 0 0 0 0 0 0 0 0 0 0 0 0 0 0 0 0 0 0 0 0 0 0 0 0 0 0 0 0 0 0 0 0 0 0
0 0 0 0 0 0 0 -0 0 -0 0 0 0 0 0 0 0 0 0 0 0 0 0 0 0 0 0 0 0 0 0 0 0 0 0 0 0 0 0 0 0 0 0 0
Wind_Speed_500mb
12 14 8 9 7 9 10 8 9 9 10 10 11 11 12 17 9 12 11 13 15 13 8 12 14 20 27 27 27 26 22 20 13 8 11 20 27 17 10 10 13 16 18 21
7 12 14 9 13 13 9 8 12 11 15 13 14 14 19 14 10 10 14 15 10 15 25 16 20 27 32 34 30 20 9 4 5 7 14 20 22 32 27 27 28 24 21 18
8 6 6 11 17 17 8 9 10 10 15 7 12 20 20 15 14 20 21 19 23 22 20 15 22 27 26 21 11 5 7 12 17 15 14 13 12 19 27 28 28 24 19 22
6 6 4 13 3 9 15 11 17 9 12 17 20 20 15 16 17 16 15 25 26 22 19 23 26 17 11 12 6 13 18 23 13 12 12 18 17 20 23 21 20 17 16 20
7 8 8 8 9 14 16 15 19 18 15 15 10 11 18 25 18 12 15 20 19 12 11 11 15 12 14 19 26 20 15 13 18 9 8 10 16 18 21 18 14 13 11 11
6 7 11 15 6 20 13 10 19 37 24 19 20 2 10 18 15 15 13 9 13 14 14 15 16 20 28 27 22 23 19 14 16 15 15 19 20 17 15 15 12 10 11 10
7 10 14 11 21 27 9 15 22 50 42 27 12 28 12 11 16 22 21 18 9 13 13 16 24 31 23 21 21 15 11 13 16 18 17 18 15 11 7 6 7 7 8 10
4 6 14 23 14 15 17 17 26 48 42 32 33 25 20 15 16 23 24 23 18 21 21 23 22 21 19 20 13 14 17 16 23 19 17 19 16 14 12 9 9 11 14 15
16 13 12 60 25 49 28 25 29 43 40 36 34 33 26 23 20 19 26 24 24 26 22 23 27 26 21 10 11 18 16 15 17 19 17 14 12 11 13 12 15 20 22 24
2 10 20 29 49 42 41 44 37 37 40 36 38 32 32 28 24 24 24 36 27 25 27 26 28 27 21 11 7 14 14 21 18 16 19 17 15 14 16 20 23 26 28 28
9 14 22 30 40 46 41 44 40 34 41 39 36 35 34 31 30 28 28 31 35 34 30 26 25 28 26 22 20 21 23 25 24 19 24 22 21 22 22 21 24 30 30 32
6 34 37 49 40 36 39 48 55 49 49 44 40 39 36 35 32 31 36 37 37 35 32 28 28 30 30 33 35 29 28 29 27 29 29 29 28 27 25 29 27 24 22 22
19 54 59 68 76 67 47 50 51 54 54 53 52 44 40 32 39 39 34 40 43 39 37 32 32 30 24 22 24 28 30 30 31 30 30 30 28 28 30 26 25 24 24 25
44 46 33 35 38 47 56 51 49 51 55 56 58 50 47 44 41 49 45 39 42 40 35 34 36 36 33 35 35 31 27 26 28 26 22 23 27 29 29 30 34 38 33 33
67 58 41 36 24 38 50 52 49 48 55 54 63 57 57 57 51 50 49 39 41 47 47 43 42 42 37 39 44 46 42 35 31 34 35 34 33 33 35 37 41 40 40 40
74 67 63 43 48 40 23 45 60 55 54 57 53 59 59 60 52 45 54 44 49 56 52 56 52 54 46 43 45 42 44 38 39 39 38 41 44 44 47 45 47 53 52 49
44 59 68 59 56 41 50 29 51 61 52 51 62 65 58 58 51 50 52 55 44 51 55 51 57 52 53 56 50 51 48 43 45 45 47 50 49 51 47 46 46 42 45 42
42 43 47 45 49 48 41 37 25 55 54 40 48 59 59 61 57 56 57 57 49 47 52 44 49 49 53 54 58 58 54 50 53 54 53 52 52 53 48 49 49 48 45 47
51 45 52 49 43 45 33 30 25 32 44 42 45 45 43 37 41 46 48 52 52 56 55 47 49 48 52 54 48 49 58 58 56 51 49 50 46 49 49 49 51 52 50 50
56 49 45 44 33 37 35 27 15 9 22 27 26 31 44 47 41 43 36 46 54 57 52 52 54 57 57 55 57 60 55 56 61 55 46 44 45 46 54 56 55 57 59 58
57 51 51 47 47 39 33 29 15 11 3 5 25 41 45 47 43 39 41 47 52 40 50 56 60 63 59 61 60 62 61 58 62 58 55 54 50 46 48 49 49 50 53 56
47 45 46 43 40 33 24 23 24 23 17 18 12 14 26 41 42 41 37 33 35 40 38 50 57 60 67 63 59 62 68 64 66 63 63 57 51 50 50 46 42 40 36 29
55 30 40 40 28 15 4 9 7 22 30 19 22 17 33 30 36 40 39 34 35 39 45 49 58 75 60 62 62 64 66 64 61 74 67 60 58 57 56 49 42 30 16 15
43 29 33 30 32 24 19 16 11 6 10 7 29 24 23 27 29 30 30 37 39 45 38 43 54 63 57 39 49 56 61 60 55 55 60 56 48 39 30 25 15 9 9 7
32 17 34 33 37 35 21 18 13 6 7 8 9 14 11 8 12 18 27 26 26 30 29 33 37 36 48 51 48 50 52 53 49 48 46 37 30 21 9 7 7 4 3 4
51 56 46 42 46 44 40 34 33 24 22 20 20 22 18 13 9 12 13 16 25 19 24 27 29 30 30 25 20 22 31 36 37 35 32 27 19 14 21 15 8 4 6 13
51 49 50 51 46 46 43 42 39 38 32 29 29 25 18 18 18 17 18 23 25 31 39 43 45 51 59 61 57 50 42 46 41 37 28 26 23 11 10 4 7 15 21 25
Wind_Direction_500mb
230 236 233 205 194 196 200 181 170 255 259 242 233 267 302 343 323 314 302 291 289 261 162 136 177 175 160 146 141 149 143 138 121 116 194 177 160 164 164 209 195 182 181 157
285 247 191 202 213 220 211 186 256 265 285 210 213 242 283 316 308 289 253 273 219 186 171 185 214 183 163 155 146 145 136 112 270 204 198 193 185 167 180 197 209 207 206 201
255 6 115 303 218 205 204 201 169 215 232 220 213 234 261 280 304 294 265 247 219 207 204 204 178 158 148 142 131 76 119 114 111 131 131 141 147 160 185 205 213 205 203 210
222 68 239 240 268 176 191 211 208 234 232 237 244 244 252 266 282 299 262 252 218 222 211 189 168 154 189 160 181 182 143 135 165 151 147 147 142 162 175 172 177 184 204 209
172 190 289 279 194 187 173 261 207 209 228 230 211 184 258 265 264 262 252 250 237 203 164 217 219 192 180 153 138 134 140 147 137 181 173 179 186 150 138 135 151 161 174 186
139 200 232 233 215 168 113 296 216 201 213 201 164 199 260 239 233 213 191 191 242 235 229 221 201 156 148 150 150 158 164 183 157 153 130 122 121 125 126 132 141 162 179 184
192 230 277 231 151 142 123 236 204 202 212 191 184 224 271 228 225 220 220 215 228 231 192 174 167 169 165 176 174 177 198 192 197 189 165 159 168 168 174 195 209 220 228 227
171 198 277 160 137 171 213 212 207 203 212 213 236 235 231 226 216 217 218 211 209 197 174 187 191 211 208 236 228 240 209 215 206 196 191 193 199 208 219 237 255 265 270 271
178 213 225 177 200 217 242 233 207 204 215 225 223 222 225 226 219 214 204 213 210 209 212 202 208 224 234 229 261 223 186 196 199 189 179 189 195 217 233 260 273 270 272 275
112 247 234 218 230 256 255 250 242 223 215 219 220 223 222 216 219 212 205 206 203 196 202 210 213 216 220 215 218 208 207 196 196 220 206 213 229 247 265 270 274 278 274 278
245 284 269 252 254 259 249 244 241 230 215 220 223 227 221 218 222 216 209 201 207 207 208 210 209 219 218 219 227 238 226 222 233 234 218 228 245 247 260 272 281 285 284 279
270 301 292 274 261 278 252 254 253 233 216 221 233 225 221 222 222 215 214 211 211 215 219 216 216 226 229 234 232 232 239 231 225 226 230 239 241 251 259 268 275 279 285 284
291 313 301 275 271 278 263 261 244 237 226 225 229 226 225 228 224 220 214 221 223 225 230 230 224 219 206 210 219 216 217 217 221 229 238 244 255 263 263 256 265 274 278 290
329 345 334 288 260 265 260 253 242 238 233 230 231 228 228 234 230 222 217 227 226 226 226 229 230 228 217 217 219 216 215 229 234 236 252 255 253 261 267 265 268 266 277 287
345 353 347 1 332 301 265 254 237 235 228 228 229 232 233 228 234 233 233 230 233 234 232 229 233 233 228 224 229 234 233 241 239 246 248 253 253 255 259 267 272 281 274 277
348 348 350 355 355 3 322 263 234 235 232 227 232 229 233 234 234 245 236 234 236 232 235 233 235 240 235 235 236 239 241 243 243 245 257 258 259 256 262 264 271 280 275 269
322 350 344 341 334 339 338 306 250 238 238 234 232 230 230 230 235 240 240 235 247 241 240 242 245 244 245 246 243 241 240 243 243 246 248 253 258 255 257 265 267 284 267 265
323 307 328 318 317 320 323 344 264 241 235 237 240 230 230 228 242 250 234 235 245 236 239 240 235 242 237 242 240 241 241 248 243 240 249 256 260 257 253 255 260 271 276 271
326 312 314 316 309 307 309 313 340 253 232 243 237 233 232 246 263 253 250 248 244 239 238 231 234 240 241 233 236 238 244 243 240 245 255 257 264 252 252 254 260 266 274 277
323 320 311 314 303 296 291 287 338 357 218 224 218 245 254 256 267 273 266 259 252 251 249 240 238 241 238 234 237 241 242 247 237 248 249 258 264 260 254 257 262 269 276 278
326 325 320 316 310 294 275 283 259 289 60 322 244 236 249 256 263 271 278 267 254 267 249 233 241 243 241 240 244 244 244 245 246 251 251 254 258 261 261 269 273 276 278 278
333 327 319 326 324 294 277 263 245 249 245 245 297 279 273 267 266 268 276 277 269 264 268 235 252 242 243 244 247 244 246 248 247 250 252 249 256 253 255 260 263 267 270 274
351 351 14 13 1 346 357 248 256 246 232 269 280 266 273 293 284 279 279 273 284 288 289 265 251 249 262 250 254 246 244 241 249 247 246 249 249 252 255 256 256 254 263 306
18 22 19 27 21 44 61 46 43 178 175 229 288 286 285 281 287 297 287 291 291 289 271 259 256 242 253 264 270 257 251 255 244 243 248 251 241 240 237 228 223 264 298 314
35 12 19 39 50 46 61 71 104 135 103 101 38 25 7 350 326 302 295 291 280 269 243 241 234 229 228 252 249 240 238 237 237 234 228 212 192 163 136 66 33 58 74 356
48 49 50 44 49 60 63 62 67 72 81 70 70 72 54 31 360 317 314 304 286 239 227 237 263 246 223 210 196 178 168 143 130 123 118 116 94 102 113 115 161 208 313 304
40 40 45 44 49 50 51 54 56 54 54 49 50 52 51 44 28 24 46 65 78 84 88 91 96 99 100 97 90 84 78 86 88 86 84 85 91 97 82 65 306 305 304 301
Wind_Speed_850mb
12 14 8 9 7 9 10 8 9 9 10 10 11 11 12 17 9 12 11 13 15 13 8 12 14 20 27 27 27 26 22 20 13 8 11 20 27 17 10 10 13 16 18 21
7 12 14 9 13 13 9 8 12 11 15 13 14 14 19 14 10 10 14 15 10 15 25 16 20 27 32 34 30 20 9 4 5 7 14 20 22 32 27 27 28 24 21 18
8 6 6 11 17 17 8 9 10 10 15 7 12 20 20 15 14 20 21 19 23 22 20 15 22 27 26 21 11 5 7 12 17 15 14 13 12 19 27 28 28 24 19 22
6 6 4 13 3 9 15 11 17 9 12 17 20 20 15 16 17 16 15 25 26 22 19 23 26 17 11 12 6 13 18 23 13 12 12 18 17 20 23 21 20 17 16 20
7 8 8 8 9 14 16 15 19 18 15 15 10 11 18 25 18 12 15 20 19 12 11 11 15 12 14 19 26 20 15 13 18 9 8 10 16 18 21 18 14 13 11 11
6 7 11 15 6 20 13 10 19 37 24 19 20 2 10 18 15 15 13 9 13 14 14 15 16 20 28 27 22 23 19 14 16 15 15 19 20 17 15 15 12 10 11 10
7 10 14 11 21 27 9 15 22 50 42 27 12 28 12 11 16 22 21 18 9 13 13 16 24 31 23 21 21 15 11 13 16 18 17 18 15 11 7 6 7 7 8 10
4 6 14 23 14 15 17 17 26 48 42 32 33 25 20 15 16 23 24 23 18 21 21 23 22 21 19 20 13 14 17 16 23 19 17 19 16 14 12 9 9 11 14 15
16 13 12 60 25 49 28 25 29 43 40 36 34 33 26 23 20 19 26 24 24 26 22 23 27 26 21 10 11 18 16 15 17 19 17 14 12 11 13 12 15 20 22 24
2 10 20 29 49 42 41 44 37 37 40 36 38 32 32 28 24 24 24 36 27 25 27 26 28 27 21 11 7 14 14 21 18 16 19 17 15 14 16 20 23 26 28 28
9 14 22 30 40 46 41 44 40 34 41 39 36 35 34 31 30 28 28 31 35 34 30 26 25 28 26 22 20 21 23 25 24 19 24 22 21 22 22 21 24 30 30 32
6 34 37 49 40 36 39 48 55 49 49 44 40 39 36 35 32 31 36 37 37 35 32 28 28 30 30 33 35 29 28 29 27 29 29 29 28 27 25 29 27 24 22 22
19 54 59 68 76 67 47 50 51 54 54 53 52 44 40 32 39 39 34 40 43 39 37 32 32 30 24 22 24 28 30 30 31 30 30 30 28 28 30 26 25 24 24 25
44 46 33 35 38 47 56 51 49 51 55 56 58 50 47 44 41 49 45 39 42 40 35 34 36 36 33 35 35 31 27 26 28 26 22 23 27 29 29 30 34 38 33 33
67 58 41 36 24 38 50 52 49 48 55 54 63 57 57 57 51 50 49 39 41 47 47 43 42 42 37 39 44 46 42 35 31 34 35 34 33 33 35 37 41 40 40 40
74 67 63 43 48 40 23 45 60 55 54 57 53 59 59 60 52 45 54 44 49 56 52 56 52 54 46 43 45 42 44 38 39 39 38 41 44 44 47 45 47 53 52 49
44 59 68 59 56 41 50 29 51 61 52 51 62 65 58 58 51 50 52 55 44 51 55 51 57 52 53 56 50 51 48 43 45 45 47 50 49 51 47 46 46 42 45 42
42 43 47 45 49 48 41 37 25 55 54 40 48 59 59 61 57 56 57 57 49 47 52 44 49 49 53 54 58 58 54 50 53 54 53 52 52 53 48 49 49 48 45 47
51 45 52 49 43 45 33 30 25 32 44 42 45 45 43 37 41 46 48 52 52 56 55 47 49 48 52 54 48 49 58 58 56 51 49 50 46 49 49 49 51 52 50 50
56 49 45 44 33 37 35 27 15 9 22 27 26 31 44 47 41 43 36 46 54 57 52 52 54 57 57 55 57 60 55 56 61 55 46 44 45 46 54 56 55 57 59 58
57 51 51 47 47 39 33 29 15 11 3 5 25 41 45 47 43 39 41 47 52 40 50 56 60 63 59 61 60 62 61 58 62 58 55 54 50 46 48 49 49 50 53 56
47 45 46 43 40 33 24 23 24 23 17 18 12 14 26 41 42 41 37 33 35 40 38 50 57 60 67 63 59 62 68 64 66 63 63 57 51 50 50 46 42 40 36 29
55 30 40 40 28 15 4 9 7 22 30 19 22 17 33 30 36 40 39 34 35 39 45 49 58 75 60 62 62 64 66 64 61 74 67 60 58 57 56 49 42 30 16 15
43 29 33 30 32 24 19 16 11 6 10 7 29 24 23 27 29 30 30 37 39 45 38 43 54 63 57 39 49 56 61 60 55 55 60 56 48 39 30 25 15 9 9 7
32 17 34 33 37 35 21 18 13 6 7 8 9 14 11 8 12 18 27 26 26 30 29 33 37 36 48 51 48 50 52 53 49 48 46 37 30 21 9 7 7 4 3 4
51 56 46 42 46 44 40 34 33 24 22 20 20 22 18 13 9 12 13 16 25 19 24 27 29 30 30 25 20 22 31 36 37 35 32 27 19 14 21 15 8 4 6 13
51 49 50 51 46 46 43 42 39 38 32 29 29 25 18 18 18 17 18 23 25 31 39 43 45 51 59 61 57 50 42 46 41 37 28 26 23 11 10 4 7 15 21 25
Wind_Direction_850mb
230 236 233 205 194 196 200 181 170 255 259 242 233 267 302 343 323 314 302 291 289 261 162 136 177 175 160 146 141 149 143 138 121 116 194 177 160 164 164 209 195 182 181 157
285 247 191 202 213 220 211 186 256 265 285 210 213 242 283 316 308 289 253 273 219 186 171 185 214 183 163 155 146 145 136 112 270 204 198 193 185 167 180 197 209 207 206 201
255 6 115 303 218 205 204 201 169 215 232 220 213 234 261 280 304 294 265 247 219 207 204 204 178 158 148 142 131 76 119 114 111 131 131 141 147 160 185 205 213 205 203 210
222 68 239 240 268 176 191 211 208 234 232 237 244 244 252 266 282 299 262 252 218 222 211 189 168 154 189 160 181 182 143 135 165 151 147 147 142 162 175 172 177 184 204 209
172 190 289 279 194 187 173 261 207 209 228 230 211 184 258 265 264 262 252 250 237 203 164 217 219 192 180 153 138 134 140 147 137 181 173 179 186 150 138 135 151 161 174 186
139 200 232 233 215 168 113 296 216 201 213 201 164 199 260 239 233 213 191 191 242 235 229 221 201 156 148 150 150 158 164 183 157 153 130 122 121 125 126 132 141 162 179 184
192 230 277 231 151 142 123 236 204 202 212 191 184 224 271 228 225 220 220 215 228 231 192 174 167 169 165 176 174 177 198 192 197 189 165 159 168 168 174 195 209 220 228 227
171 198 277 160 137 171 213 212 207 203 212 213 236 235 231 226 216 217 218 211 209 197 174 187 191 211 208 236 228 240 209 215 206 196 191 193 199 208 219 237 255 265 270 271
178 213 225 177 200 217 242 233 207 204 215 225 223 222 225 226 219 214 204 213 210 209 212 202 208 224 234 229 261 223 186 196 199 189 179 189 195 217 233 260 273 270 272 275
112 247 234 218 230 256 255 250 242 223 215 219 220 223 222 216 219 212 205 206 203 196 202 210 213 216 220 215 218 208 207 196 196 220 206 213 229 247 265 270 274 278 274 278
245 284 269 252 254 259 249 244 241 230 215 220 223 227 221 218 222 216 209 201 207 207 208 210 209 219 218 219 227 238 226 222 233 234 218 228 245 247 260 272 281 285 284 279
270 301 292 274 261 278 252 254 253 233 216 221 233 225 221 222 222 215 214 211 211 215 219 216 216 226 229 234 232 232 239 231 225 226 230 239 241 251 259 268 275 279 285 284
291 313 301 275 271 278 263 261 244 237 226 225 229 226 225 228 224 220 214 221 223 225 230 230 224 219 206 210 219 216 217 217 221 229 238 244 255 263 263 256 265 274 278 290
329 345 334 288 260 265 260 253 242 238 233 230 231 228 228 234 230 222 217 227 226 226 226 229 230 228 217 217 219 216 215 229 234 236 252 255 253 261 267 265 268 266 277 287
345 353 347 1 332 301 265 254 237 235 228 228 229 232 233 228 234 233 233 230 233 234 232 229 233 233 228 224 229 234 233 241 239 246 248 253 253 255 259 267 272 281 274 277
348 348 350 355 355 3 322 263 234 235 232 227 232 229 233 234 234 245 236 234 236 232 235 233 235 240 235 235 236 239 241 243 243 245 257 258 259 256 262 264 271 280 275 269
322 350 344 341 334 339 338 306 250 238 238 234 232 230 230 230 235 240 240 235 247 241 240 242 245 244 245 246 243 241 240 243 243 246 248 253 258 255 257 265 267 284 267 265
323 307 328 318 317 320 323 344 264 241 235 237 240 230 230 228 242 250 234 235 245 236 239 240 235 242 237 242 240 241 241 248 243 240 249 256 260 257 253 255 260 271 276 271
326 312 314 316 309 307 309 313 340 253 232 243 237 233 232 246 263 253 250 248 244 239 238 231 234 240 241 233 236 238 244 243 240 245 255 257 264 252 252 254 260 266 274 277
323 320 311 314 303 296 291 287 338 357 218 224 218 245 254 256 267 273 266 259 252 251 249 240 238 241 238 234 237 241 242 247 237 248 249 258 264 260 254 257 262 269 276 278
326 325 320 316 310 294 275 283 259 289 60 322 244 236 249 256 263 271 278 267 254 267 249 233 241 243 241 240 244 244 244 245 246 251 251 254 258 261 261 269 273 276 278 278
333 327 319 326 324 294 277 263 245 249 245 245 297 279 273 267 266 268 276 277 269 264 268 235 252 242 243 244 247 244 246 248 247 250 252 249 256 253 255 260 263 267 270 274
351 351 14 13 1 346 357 248 256 246 232 269 280 266 273 293 284 279 279 273 284 288 289 265 251 249 262 250 254 246 244 241 249 247 246 249 249 252 255 256 256 254 263 306
18 22 19 27 21 44 61 46 43 178 175 229 288 286 285 281 287 297 287 291 291 289 271 259 256 242 253 264 270 257 251 255 244 243 248 251 241 240 237 228 223 264 298 314
35 12 19 39 50 46 61 71 104 135 103 101 38 25 7 350 326 302 295 291 280 269 243 241 234 229 228 252 249 240 238 237 237 234 228 212 192 163 136 66 33 58 74 356
48 49 50 44 49 60 63 62 67 72 81 70 70 72 54 31 360 317 314 304 286 239 227 237 263 246 223 210 196 178 168 143 130 123 118 116 94 102 113 115 161 208 313 304
40 40 45 44 49 50 51 54 56 54 54 49 50 52 51 44 28 24 46 65 78 84 88 91 96 99 100 97 90 84 78 86 88 86 84 85 91 97 82 65 306 305 304 301